Regional Weather Roundup
Issued by NWS

Home | Current Version | Previous Version | Text Only | Print | Product List | Glossary Off
Versions: 1 2 3 4 5 6 7 8 9 10 11 12 13 14 15 16 17 18 19 20 21 22 23 24 25 26 27

000
ASUS45 KSLC 220410
RWRUT

UTAH REGIONAL WEATHER ROUNDUP
NATIONAL WEATHER SERVICE SALT LAKE CITY UT
1000 PM MDT TUE OCT 21 2014

UTZ001>011-023>025-220500-

NORTHERN UTAH

CITY           SKY/WX    TMP DP  RH WIND       PRES   REMARKS
BRIGHAM CITY   CLEAR     48  31  51 NW5       30.09R
HILL AFB       CLEAR     48  32  52 NW6       30.08R
LOGAN          CLEAR     39  33  79 W6        30.09R WCI  35
OGDEN          CLEAR     47  33  58 NW5       30.07R
PROVO AIRPORT  CLEAR     54  28  37 NW10      30.05S
SALT LAKE CITY PTCLDY    49  34  56 N13       30.06R
VERNAL         MOCLDY    53  40  61 NE12      30.03R
WENDOVER       CLEAR     52  28  40 N13       30.10R
HEBER CITY     CLEAR     41  30  65 SE7       30.08R
WEST JORDAN    CLEAR     48  32  53 NW10      30.08R

$$

UTZ012>022-026-027-220500-

SOUTHERN/CENTRAL UTAH

CITY           SKY/WX    TMP DP  RH WIND       PRES   REMARKS
BLANDING       CLEAR     52  38  60 N5        30.13R
BRYCE CANYON   CLEAR     38  32  79 NW5       30.14R WCI  34
CEDAR CITY     CLEAR     54  37  52 SE8       30.03R
DELTA          CLEAR     51  25  37 N13       30.05R
HANKSVILLE     MOCLDY    64  36  34 SW8       29.96R
MILFORD        CLEAR     53  30  41 N15       30.03R
MOAB/CYNLANDS  CLOUDY    66  33  29 N3        29.93R
PRICE          MOCLDY    54  42  64 NE7       30.03R
ST GEORGE      CLEAR     70  36  28 S3        29.91R

$$

REGIONAL REPORTS     COLORADO/ARIZONA

CITY           SKY/WX    TMP DP  RH WIND       PRES   REMARKS
CRAIG, CO      LGT RAIN  48  39  71 W14G26    30.15R
GRAND JUNCTION PTCLDY    54  46  74 E12       29.98R
RIFLE          MOCLDY    52  44  74 CALM      30.03R
MONTROSE       CLEAR     50  43  77 SE6       30.07R
CORTEZ         CLOUDY    50  42  74 CALM      30.09R
PAGE, AZ       CLEAR     67  36  31 SW5       29.95R
GRAND CANYON   PTCLDY    41  31  67 CALM      30.13R
KINGMAN        CLEAR     63  44  50 S10       29.96R
FLAGSTAFF      PTCLDY    48  39  71 SW5       30.15S

$$

REGIONAL REPORTS    NEVADA/IDAHO/WYOMING

CITY           SKY/WX    TMP DP  RH WIND       PRES   REMARKS
LAS VEGAS, NV  PTCLDY    74  25  16 S12       29.81R
ELY            CLEAR     42   9  25 N9        30.10R
ELKO           CLEAR     38  17  42 CALM      30.08S
POCATELLO, ID  CLEAR     45  35  68 SW14      30.10S
BURLEY         CLEAR     40  34  79 SW10      30.09R WCI  33
EVANSTON, WY   PTCLDY    41  22  46 N5        30.12R
ROCK SPRINGS   CLOUDY    44  31  60 SW14      30.10R
KEMMERER       CLEAR     34  27  75 CALM      30.12R

$$



USA.gov is the U.S. government's official web portal to all federal, state and local government web resources and services.